Location: Buckeye Ditch
(40.9104°N, 122.9517°W)
Time: 17:30:35
(UTC+00:00)

Tiros 1 despin weight - All Passes

Search period start: 16 December 2025 00:00
Search period end: 26 December 2025 00:00
Orbit: 558 x 596 km, 48.2° (Epoch: 14 December)

Date Brightness Start Highest point End Pass type
(mag) Time Alt. Az. Time Alt. Az. Time Alt. Az.
16 Dec - 00:52:07 10° WSW 00:56:27 72° NNW 01:00:45 10° ENE daylight
16 Dec - 02:33:40 10° WNW 02:37:33 32° N 02:41:24 10° ENE visible
16 Dec - 04:14:57 10° NW 04:18:55 36° NNE 04:22:51 10° E visible
16 Dec - 05:55:34 10° WNW 05:59:49 78° SSW 06:04:01 10° SE night (unlit)
16 Dec - 07:37:35 10° W 07:39:52 14° SW 07:42:09 10° SSW night (unlit)
16 Dec - 23:15:02 10° SSW 23:19:04 38° SE 23:23:04 10° ENE daylight
17 Dec - 00:55:23 10° W 00:59:38 53° NNW 01:03:51 10° NE daylight
17 Dec - 02:37:02 10° WNW 02:40:52 30° N 02:44:40 10° ENE visible
17 Dec - 04:18:04 10° NW 04:22:11 43° NNE 04:26:13 10° E visible
17 Dec - 05:58:45 10° WNW 06:02:53 51° SW 06:06:57 10° SE night (unlit)
17 Dec - 21:41:28 10° SE 21:42:08 10° SE 21:42:49 10° ESE daylight
17 Dec - 23:17:48 10° SW 23:22:05 58° SE 23:26:20 10° ENE daylight
18 Dec - 00:58:43 10° W 01:02:51 42° NNW 01:06:57 10° NE daylight
18 Dec - 02:40:20 10° WNW 02:44:11 30° N 02:47:59 10° ENE visible
18 Dec - 04:21:10 10° WNW 04:25:23 56° NNE 04:29:33 10° ESE visible
18 Dec - 06:02:03 10° WNW 06:05:52 33° SW 06:09:39 10° SSE night (unlit)
18 Dec - 21:42:08 10° S 21:44:59 17° SE 21:47:50 10° E daylight
18 Dec - 23:20:46 10° WSW 23:25:09 86° SSE 23:29:29 10° ENE daylight
19 Dec - 01:02:06 10° W 01:06:06 35° NNW 01:10:05 10° NE daylight
19 Dec - 02:43:34 10° WNW 02:47:29 33° N 02:51:21 10° ENE visible
19 Dec - 04:24:15 10° WNW 04:28:33 78° NNE 04:32:46 10° ESE visible
19 Dec - 06:05:34 10° W 06:08:47 21° SW 06:11:59 10° S night (unlit)
19 Dec - 21:44:11 10° SSW 21:47:53 27° SE 21:51:32 10° E daylight
19 Dec - 23:23:54 10° WSW 23:28:16 68° NNW 23:32:34 10° ENE daylight
20 Dec - 01:05:29 10° WNW 01:09:24 32° N 01:13:16 10° ENE daylight
20 Dec - 02:46:44 10° NW 02:50:45 37° NNE 02:54:44 10° E visible
20 Dec - 04:27:22 10° WNW 04:31:37 73° SSW 04:35:50 10° SE visible
20 Dec - 06:09:37 10° WSW 06:11:39 13° SW 06:13:40 10° SSW night (unlit)
20 Dec - 21:46:42 10° SSW 21:50:49 41° SE 21:54:55 10° ENE daylight
20 Dec - 23:27:09 10° W 23:31:25 51° NNW 23:35:39 10° NE daylight
21 Dec - 01:08:49 10° WNW 01:12:41 30° N 01:16:30 10° ENE visible
21 Dec - 02:49:50 10° NW 02:53:59 45° NNE 02:58:05 10° E visible
21 Dec - 04:30:32 10° WNW 04:34:39 47° SW 04:38:43 10° SE visible
21 Dec - 20:12:22 10° SSE 20:13:50 11° SE 20:15:18 10° ESE daylight
21 Dec - 21:49:29 10° SW 21:53:48 63° SSE 21:58:08 10° ENE daylight
21 Dec - 23:30:29 10° W 23:34:38 40° NNW 23:38:44 10° NE daylight
22 Dec - 01:12:05 10° WNW 01:15:58 31° N 01:19:49 10° ENE visible
22 Dec - 02:52:54 10° WNW 02:57:10 60° NNE 03:01:22 10° ESE visible
22 Dec - 04:33:50 10° WNW 04:37:37 31° SW 04:41:20 10° SSE visible
22 Dec - 20:13:35 10° S 20:16:39 19° SE 20:19:44 10° E daylight
22 Dec - 21:52:28 10° WSW 21:56:52 89° NNW 22:01:14 10° ENE daylight
22 Dec - 23:33:51 10° WNW 23:37:52 35° N 23:41:51 10° NE daylight
23 Dec - 01:15:17 10° WNW 01:19:15 33° N 01:23:10 10° ENE visible
23 Dec - 02:55:57 10° WNW 03:00:17 83° NNE 03:04:32 10° ESE visible
23 Dec - 04:37:23 10° W 04:40:29 20° SW 04:43:35 10° S visible
23 Dec - 20:15:44 10° SSW 20:19:32 29° SE 20:23:20 10° ENE daylight
23 Dec - 21:55:36 10° WSW 21:59:58 65° NNW 22:04:18 10° ENE daylight
23 Dec - 23:37:12 10° WNW 23:41:08 31° N 23:45:01 10° ENE daylight
24 Dec - 01:18:24 10° NW 01:22:29 39° NNE 01:26:31 10° E visible
24 Dec - 02:59:03 10° WNW 03:03:21 68° SSW 03:07:33 10° SE visible
24 Dec - 04:41:36 10° WSW 04:43:19 12° SW 04:45:01 10° SSW visible
24 Dec - 20:18:17 10° SW 20:22:28 44° SE 20:26:39 10° ENE daylight
24 Dec - 21:58:51 10° W 22:03:07 49° NNW 22:07:21 10° NE daylight
24 Dec - 23:40:30 10° WNW 23:44:24 31° N 23:48:15 10° ENE daylight
25 Dec - 01:21:28 10° NW 01:25:41 48° NNE 01:29:50 10° E visible
25 Dec - 03:02:13 10° WNW 03:06:19 44° SW 03:10:22 10° SE visible
25 Dec - 18:43:31 10° SSE 18:45:26 13° SE 18:47:21 10° ESE daylight
25 Dec - 20:21:04 10° SW 20:25:27 67° SE 20:29:49 10° ENE daylight
25 Dec - 22:02:09 10° W 22:06:18 39° NNW 22:10:25 10° NE daylight
25 Dec - 23:43:44 10° WNW 23:47:40 31° N 23:51:33 10° ENE daylight
